SCP
0 0 0 0 0 0 0 0 0 0 0 0 0 0 0 0 0 0 0 0 0 0 0 0 0 0 0 0 0 0 0 0 0 0 0 0 -0 -0 -0 -0 -0 -0 -0
0 0 0 0 0 0 0 0 0 0 0 0 0 0 0 0 0 0 0 0 0 0 0 0 0 0 0 0 0 0 0 0 0 0 0 0 0 -0 -0 -0 -0 -0 -0
0 0 0 0 0 0 0 0 0 0 0 0 0 0 0 0 0 0 0 0 0 0 0 0 0 0 0 0 0 0 0 0 0 0 0 0 0 -0 -0 -0 -0 -0 -0
0 0 0 0 0 0 0 0 0 0 0 0 0 0 0 0 0 0 0 0 0 0 0 0 0 0 0 0 0 0 0 0 0 0 0 0 0 -0 -0 -0 -0 -0 -0
0 0 0 0 0 0 0 0 0 0 0 0 0 0 0 0 0 -0 0 0 0 0 0 0 0 0 0 0 0 0 0 0 0 0 0 0 0 0 -0 -0 -0 -0 -0
0 0 0 0 0 0 0 0 0 0 0 0 0 0 0 -0 -0 -0 0 0 0 0 0 0 0 0 0 0 0 0 0 0 0 0 0 0 0 0 -0 -0 -0 -0 -0
0 0 0 0 0 0 0 0 0 0 0 0 0 0 -0 -0 0 0 -0 0 -0 0 -0 -0 -0 0 0 0 0 0 0 0 0 0 0 0 0 -0 -0 -0 -0 -0 -0
0 0 0 0 0 0 0 0 0 0 0 0 0 0 0 -0 -0 0 -0 -0 -0 -0 -0 -0 0 0 0 0 0 0 0 0 0 0 0 0 0 -0 -0 -0 -0 -0 -0
0 0 0 0 0 0 0 0 0 0 0 0 -0 0 -0 0 0 0 0 -0 -0 -0 0 -0 0 0 -0 0 0 0 0 0 0 0 0 0 0 -0 -0 -0 -0 -0 -0
0 0 0 0 0 0 0 0 0 0 0 -0 -0 -0 -0 -0 -0 0 -0 -0 -0 -0 -0 0 0 0 0 0 0 0 0 0 0 0 0 0 0 0 0 -0 -0 -0 -0
0 0 0 0 0 0 0 0 0 -0 -0 -0 -0 -0 0 0 -0 0 -0 -0 -0 -0 0 0 -0 0 0 0 0 0 0 0 0 0 0 0 0 0 0 0 -0 0 -0
0 0 0 0 0 0 0 0 0 0 0 0 0 0 0 0 0 0 0 0 0 0 0 0 0 0 0 0 0 0 0 0 0 0 0 0 0 0 0 0 0 0 0
0 0 0 0 0 0 0 0 0 0 0 0 0 0 0 0 0 0 0 0 0 0 0 0 0 0 0 0 0 0 0 0 0 0 0 0 0 0 0 0 0 0 0
0 0 0 0 0 0 0 0 0 0 0 0 0 0 0 0 0 0 0 0 0 0 0 0 0 0 0 0 0 0 0 0 0 0 0 0 0 0 0 0 0 0 0
0 0 0 0 0 0 0 0 0 0 0 0 0 0 0 0 0 0 0 0 0 0 0 0 0 0 0 0 0 0 0 0 0 0 0 0 0 0 0 0 0 0 0
0 0 0 0 0 0 0 0 0 0 0 0 0 0 0 0 0 0 0 0 0 0 0 0 0 0 0 0 0 0 0 0 0 0 0 0 0 0 0 0 0 0 0
0 0 0 0 0 0 0 0 0 0 0 0 0 0 0 0 0 0 0 0 0 0 0 0 0 0 0 0 0 0 0 0 0 0 0 0 0 0 0 0 0 0 0
0 0 0 0 0 0 0 0 0 0 0 0 0 0 0 0 0 0 0 0 0 0 0 0 0 0 0 0 0 0 0 0 0 0 0 0 0 0 0 0 0 0 0
0 0 0 0 0 0 0 0 0 0 0 0 0 0 0 0 0 0 0 0 0 0 0 0 0 0 0 0 0 0 0 0 0 0 0 0 0 0 0 0 0 0 0
0 0 0 0 0 0 0 0 0 0 0 0 0 0 0 0 0 0 0 0 0 0 0 0 0 0 0 0 0 0 0 0 0 0 0 0 0 0 0 0 0 0 0
0 0 0 0 0 0 0 0 0 0 0 0 0 0 0 0 0 0 0 0 0 0 0 0 0 0 0 0 0 0 0 0 0 0 0 0 0 0 0 0 0 0 0
0 0 0 0 0 0 0 0 0 0 0 0 0 0 0 0 0 0 0 0 0 0 0 0 0 0 0 0 0 0 0 0 0 0 0 0 0 0 0 0 0 0 0
0 0 0 0 0 0 0 0 0 0 0 0 0 0 0 0 0 0 0 0 0 0 0 0 0 0 0 0 0 0 0 0 0 0 0 0 0 0 0 0 0 0 0
0 0 0 0 0 0 0 0 0 0 0 0 0 0 0 0 0 0 0 0 0 0 0 0 0 0 0 0 0 0 0 0 0 0 0 0 0 0 0 0 0 0 0
0 0 0 0 0 0 0 0 0 0 0 0 0 0 0 0 0 0 0 0 0 0 0 0 0 0 0 0 0 0 0 0 0 0 0 0 0 0 0 0 0 0 0
0 0 0 0 0 0 0 0 0 0 0 0 0 0 0 0 0 0 0 0 0 0 0 0 0 0 0 0 0 0 0 0 0 0 0 0 0 0 0 0 0 0 0
Wind_Speed_500mb
35 31 31 28 27 27 24 26 28 28 30 33 34 34 33 32 31 33 34 34 36 36 34 33 35 38 35 34 34 36 39 40 40 42 43 44 45 45 45 46 46 47 45
33 27 26 27 28 30 28 31 31 30 32 34 33 32 27 28 31 35 36 38 40 40 37 39 41 41 40 36 36 37 39 40 42 43 41 44 43 42 42 41 45 47 45
32 25 25 25 30 31 32 28 28 30 30 31 31 29 30 30 15 26 34 38 39 40 40 41 45 43 42 42 39 39 42 41 41 43 44 44 43 42 42 40 42 42 43
31 29 23 23 28 32 34 35 32 31 32 30 30 30 32 31 32 28 31 35 38 41 41 42 45 47 48 44 44 38 41 41 41 43 45 45 43 40 41 42 39 39 38
30 26 24 22 26 32 34 37 36 32 32 33 36 36 36 48 32 40 29 33 38 43 47 50 51 50 41 38 46 38 39 39 41 42 43 43 41 39 40 39 38 37 37
28 26 23 21 27 32 33 34 35 35 33 33 34 34 38 35 38 50 40 30 44 54 57 57 56 53 50 50 49 45 40 39 39 41 42 43 40 37 36 37 37 37 34
28 24 21 20 27 28 26 28 30 37 35 31 33 35 37 41 42 49 52 52 53 53 61 57 48 39 40 40 43 43 41 39 40 44 45 45 44 38 39 39 39 39 37
26 23 19 18 20 21 27 28 34 37 35 35 35 38 40 43 43 47 64 71 64 57 45 44 30 33 36 45 44 40 38 33 35 39 45 48 45 41 38 38 37 35 37
29 25 21 24 28 29 22 19 21 29 32 37 44 36 35 41 47 39 90 72 57 54 51 52 58 49 45 49 45 40 37 31 27 26 25 29 34 36 40 39 37 36 30
32 28 26 31 28 18 16 20 20 21 21 24 27 36 35 33 13 35 69 64 58 56 65 66 58 53 48 47 43 37 32 28 26 27 25 22 28 31 34 33 30 28 23
37 29 28 30 28 21 17 19 20 19 24 23 24 31 40 45 43 9 72 60 54 50 49 50 38 37 41 38 34 29 28 29 27 28 29 28 33 30 27 28 26 26 24
44 39 30 30 28 25 23 29 30 27 24 27 37 35 35 42 35 32 15 31 55 57 46 42 39 34 34 31 31 29 27 29 29 30 30 29 31 31 22 18 18 18 20
47 40 34 30 31 29 24 29 28 24 24 31 28 29 27 24 28 26 44 38 54 56 53 35 35 33 33 30 28 24 23 27 31 35 36 34 31 27 24 20 15 11 10
53 48 42 39 35 34 33 35 32 29 32 32 30 34 32 38 34 38 42 51 56 47 42 39 40 37 34 29 24 22 23 29 31 34 36 30 26 25 27 24 20 15 8
57 54 51 48 43 38 36 34 27 27 27 24 24 24 26 28 32 44 50 54 48 37 36 41 39 39 32 28 25 23 26 30 33 32 33 30 28 26 24 21 19 13 9
62 59 56 54 49 41 40 33 31 29 28 26 25 25 26 27 33 37 47 52 41 41 42 40 39 35 33 29 28 27 29 31 31 26 22 30 27 23 22 19 17 14 11
68 65 64 62 56 49 44 39 37 35 33 34 35 35 33 30 32 44 53 49 34 37 40 38 36 36 35 33 30 31 33 33 28 22 16 11 7 4 2 1 2 6 12
73 74 69 68 61 58 51 46 43 42 41 39 35 35 31 27 25 29 36 39 41 39 39 38 35 35 33 34 33 36 37 33 27 23 19 16 10 7 7 6 3 2 2
77 79 78 75 69 64 57 54 47 48 47 45 41 38 36 35 33 30 32 37 40 40 38 36 38 37 40 39 39 39 35 32 27 24 23 21 16 13 11 6 5 5 4
77 81 82 80 75 69 64 62 57 52 51 47 44 39 37 37 39 39 35 34 34 35 35 36 35 37 41 44 46 41 37 32 29 28 27 22 20 16 12 10 9 6 4
72 81 87 85 82 77 75 71 68 66 59 55 48 44 41 38 40 39 40 37 35 36 37 38 39 38 41 38 38 35 31 29 30 28 26 24 21 17 15 13 12 11 12
64 76 81 80 86 81 77 75 72 71 69 63 59 54 48 45 42 42 40 40 40 41 43 42 42 46 43 44 37 30 23 21 27 27 27 25 22 20 17 15 15 15 15
50 69 76 80 82 84 77 76 74 73 73 72 66 64 58 51 48 45 43 42 44 48 48 46 45 41 44 47 37 19 14 13 20 27 29 29 26 24 21 19 19 18 18
52 64 68 75 78 80 79 70 74 76 78 77 69 65 59 54 52 50 46 44 44 46 47 44 45 44 36 37 41 33 19 14 13 13 22 30 31 29 26 24 23 23 22
37 52 61 71 71 73 76 65 58 68 70 70 67 61 61 60 55 50 48 48 46 48 45 42 43 44 42 41 44 40 31 24 21 19 13 22 31 31 30 26 24 24 23
25 43 49 61 64 61 65 74 65 60 59 60 65 65 61 58 61 61 54 50 49 46 47 44 44 47 47 43 45 37 30 22 23 22 19 17 22 28 32 31 29 28 26
Wind_Direction_500mb
188 183 185 178 178 174 189 197 207 208 205 203 198 197 199 197 196 191 185 179 176 173 169 162 164 161 152 146 139 136 134 130 128 126 121 122 120 116 113 111 111 115 118
180 181 182 182 187 188 192 197 211 209 209 204 204 202 210 203 197 188 184 178 177 174 170 161 158 155 149 147 141 141 136 133 129 128 125 121 119 119 116 118 115 111 115
185 185 183 191 197 200 199 205 219 214 217 215 218 217 205 187 189 197 186 179 176 173 171 167 158 156 152 143 140 141 139 133 131 127 122 120 120 121 117 120 117 118 117
181 185 195 206 211 212 209 209 216 224 224 219 219 218 209 189 198 211 197 180 172 169 167 162 158 152 151 147 137 144 140 136 132 129 127 120 120 122 123 119 119 116 118
185 193 208 223 228 221 216 215 220 228 227 227 229 222 219 209 207 226 198 176 167 159 158 150 148 150 146 145 140 151 143 139 136 133 128 124 122 120 121 122 123 119 115
196 207 221 229 227 223 223 222 225 231 232 231 228 222 219 217 217 206 186 188 163 158 153 145 140 140 141 144 144 143 139 139 138 132 129 124 124 123 124 120 119 118 122
204 212 229 230 225 224 225 229 234 235 235 234 233 226 222 216 215 219 212 178 170 166 152 144 133 135 141 149 144 140 138 134 132 130 127 122 114 119 119 118 115 115 116
199 212 217 211 204 209 215 223 226 232 233 235 234 228 224 220 221 202 174 161 161 163 168 171 176 161 159 149 143 141 136 136 133 128 123 120 119 124 125 120 121 124 125
196 209 207 196 196 212 216 223 228 235 239 235 235 234 221 218 204 245 152 148 148 152 152 149 149 156 170 161 153 151 148 147 152 152 155 146 135 131 126 131 132 135 138
196 202 202 205 215 207 206 219 217 216 213 207 225 225 223 203 192 110 150 144 148 152 149 145 159 167 174 158 152 153 157 160 173 178 181 176 147 147 147 152 155 147 142
193 196 195 206 218 213 177 177 195 203 218 222 207 198 201 191 196 38 124 137 145 149 151 151 161 147 147 144 148 149 149 147 150 150 148 145 136 129 159 177 188 192 197
195 193 201 205 214 201 179 183 185 196 220 215 183 171 165 186 190 189 193 158 150 147 151 153 156 165 165 162 155 148 147 146 148 144 135 134 130 129 141 156 179 191 196
198 196 198 204 210 201 185 183 202 197 199 192 182 181 191 211 204 205 215 198 174 155 152 158 161 169 168 166 161 157 154 151 154 145 136 138 138 133 129 134 136 149 183
202 199 195 203 208 204 186 183 196 206 208 210 214 215 212 197 190 191 194 178 171 161 157 176 176 179 175 169 169 171 167 166 162 156 145 142 133 122 121 118 127 118 138
206 203 200 200 204 206 192 188 186 203 203 197 202 199 200 197 196 188 179 174 159 159 173 174 178 176 181 180 175 175 173 173 171 173 156 141 133 128 118 118 110 105 127
212 208 204 202 202 205 198 194 190 196 197 191 170 158 162 167 165 171 162 146 153 173 172 184 181 185 186 184 178 172 174 175 178 184 173 156 148 145 133 121 114 100 92
219 211 207 204 201 204 204 197 194 192 188 183 171 158 156 159 151 143 153 157 165 173 178 182 183 183 181 179 177 170 173 177 183 190 192 177 166 190 199 269 140 107 94
218 211 208 205 201 202 203 200 198 193 187 186 183 176 175 174 174 173 174 174 174 178 178 184 186 178 175 174 175 171 171 173 179 191 205 222 243 257 258 259 259 200 147
223 214 210 205 202 204 201 203 203 199 194 192 194 193 186 182 177 177 176 179 177 177 177 184 184 187 179 177 176 173 173 179 188 204 220 231 240 243 245 248 234 221 217
225 216 212 208 203 205 205 206 201 203 198 197 197 196 194 191 185 184 185 186 184 184 181 183 184 179 180 176 172 170 173 182 196 208 222 234 244 243 240 237 244 249 237
224 215 212 211 204 205 205 204 205 200 202 201 201 200 201 202 198 196 190 188 190 191 192 193 188 187 180 186 187 179 185 197 206 214 223 228 232 242 248 248 251 254 254
221 216 213 209 209 205 209 208 210 205 203 206 206 205 207 207 205 204 202 192 192 193 197 196 193 186 188 186 185 179 176 202 219 225 232 240 243 246 249 248 245 247 248
211 208 215 206 210 206 208 211 213 209 209 207 210 206 207 206 207 206 205 205 201 198 197 192 195 199 197 190 181 175 163 187 203 231 236 241 244 245 244 249 252 255 257
194 199 205 202 207 210 208 212 216 218 212 214 216 215 217 205 206 206 204 204 203 203 204 200 198 201 206 205 196 202 185 198 190 203 230 239 240 242 247 249 254 256 258
193 196 200 204 207 209 210 208 219 223 220 228 220 217 211 217 207 202 202 202 203 206 206 207 209 209 207 210 211 207 206 205 224 224 225 237 243 243 243 246 248 247 251
152 184 188 203 206 212 212 210 210 214 222 229 218 213 222 214 210 206 204 202 202 204 205 206 206 211 212 214 219 222 229 229 229 232 240 245 242 242 241 240 241 244 250
Wind_Speed_850mb
35 31 31 28 27 27 24 26 28 28 30 33 34 34 33 32 31 33 34 34 36 36 34 33 35 38 35 34 34 36 39 40 40 42 43 44 45 45 45 46 46 47 45
33 27 26 27 28 30 28 31 31 30 32 34 33 32 27 28 31 35 36 38 40 40 37 39 41 41 40 36 36 37 39 40 42 43 41 44 43 42 42 41 45 47 45
32 25 25 25 30 31 32 28 28 30 30 31 31 29 30 30 15 26 34 38 39 40 40 41 45 43 42 42 39 39 42 41 41 43 44 44 43 42 42 40 42 42 43
31 29 23 23 28 32 34 35 32 31 32 30 30 30 32 31 32 28 31 35 38 41 41 42 45 47 48 44 44 38 41 41 41 43 45 45 43 40 41 42 39 39 38
30 26 24 22 26 32 34 37 36 32 32 33 36 36 36 48 32 40 29 33 38 43 47 50 51 50 41 38 46 38 39 39 41 42 43 43 41 39 40 39 38 37 37
28 26 23 21 27 32 33 34 35 35 33 33 34 34 38 35 38 50 40 30 44 54 57 57 56 53 50 50 49 45 40 39 39 41 42 43 40 37 36 37 37 37 34
28 24 21 20 27 28 26 28 30 37 35 31 33 35 37 41 42 49 52 52 53 53 61 57 48 39 40 40 43 43 41 39 40 44 45 45 44 38 39 39 39 39 37
26 23 19 18 20 21 27 28 34 37 35 35 35 38 40 43 43 47 64 71 64 57 45 44 30 33 36 45 44 40 38 33 35 39 45 48 45 41 38 38 37 35 37
29 25 21 24 28 29 22 19 21 29 32 37 44 36 35 41 47 39 90 72 57 54 51 52 58 49 45 49 45 40 37 31 27 26 25 29 34 36 40 39 37 36 30
32 28 26 31 28 18 16 20 20 21 21 24 27 36 35 33 13 35 69 64 58 56 65 66 58 53 48 47 43 37 32 28 26 27 25 22 28 31 34 33 30 28 23
37 29 28 30 28 21 17 19 20 19 24 23 24 31 40 45 43 9 72 60 54 50 49 50 38 37 41 38 34 29 28 29 27 28 29 28 33 30 27 28 26 26 24
44 39 30 30 28 25 23 29 30 27 24 27 37 35 35 42 35 32 15 31 55 57 46 42 39 34 34 31 31 29 27 29 29 30 30 29 31 31 22 18 18 18 20
47 40 34 30 31 29 24 29 28 24 24 31 28 29 27 24 28 26 44 38 54 56 53 35 35 33 33 30 28 24 23 27 31 35 36 34 31 27 24 20 15 11 10
53 48 42 39 35 34 33 35 32 29 32 32 30 34 32 38 34 38 42 51 56 47 42 39 40 37 34 29 24 22 23 29 31 34 36 30 26 25 27 24 20 15 8
57 54 51 48 43 38 36 34 27 27 27 24 24 24 26 28 32 44 50 54 48 37 36 41 39 39 32 28 25 23 26 30 33 32 33 30 28 26 24 21 19 13 9
62 59 56 54 49 41 40 33 31 29 28 26 25 25 26 27 33 37 47 52 41 41 42 40 39 35 33 29 28 27 29 31 31 26 22 30 27 23 22 19 17 14 11
68 65 64 62 56 49 44 39 37 35 33 34 35 35 33 30 32 44 53 49 34 37 40 38 36 36 35 33 30 31 33 33 28 22 16 11 7 4 2 1 2 6 12
73 74 69 68 61 58 51 46 43 42 41 39 35 35 31 27 25 29 36 39 41 39 39 38 35 35 33 34 33 36 37 33 27 23 19 16 10 7 7 6 3 2 2
77 79 78 75 69 64 57 54 47 48 47 45 41 38 36 35 33 30 32 37 40 40 38 36 38 37 40 39 39 39 35 32 27 24 23 21 16 13 11 6 5 5 4
77 81 82 80 75 69 64 62 57 52 51 47 44 39 37 37 39 39 35 34 34 35 35 36 35 37 41 44 46 41 37 32 29 28 27 22 20 16 12 10 9 6 4
72 81 87 85 82 77 75 71 68 66 59 55 48 44 41 38 40 39 40 37 35 36 37 38 39 38 41 38 38 35 31 29 30 28 26 24 21 17 15 13 12 11 12
64 76 81 80 86 81 77 75 72 71 69 63 59 54 48 45 42 42 40 40 40 41 43 42 42 46 43 44 37 30 23 21 27 27 27 25 22 20 17 15 15 15 15
50 69 76 80 82 84 77 76 74 73 73 72 66 64 58 51 48 45 43 42 44 48 48 46 45 41 44 47 37 19 14 13 20 27 29 29 26 24 21 19 19 18 18
52 64 68 75 78 80 79 70 74 76 78 77 69 65 59 54 52 50 46 44 44 46 47 44 45 44 36 37 41 33 19 14 13 13 22 30 31 29 26 24 23 23 22
37 52 61 71 71 73 76 65 58 68 70 70 67 61 61 60 55 50 48 48 46 48 45 42 43 44 42 41 44 40 31 24 21 19 13 22 31 31 30 26 24 24 23
25 43 49 61 64 61 65 74 65 60 59 60 65 65 61 58 61 61 54 50 49 46 47 44 44 47 47 43 45 37 30 22 23 22 19 17 22 28 32 31 29 28 26
Wind_Direction_850mb
188 183 185 178 178 174 189 197 207 208 205 203 198 197 199 197 196 191 185 179 176 173 169 162 164 161 152 146 139 136 134 130 128 126 121 122 120 116 113 111 111 115 118
180 181 182 182 187 188 192 197 211 209 209 204 204 202 210 203 197 188 184 178 177 174 170 161 158 155 149 147 141 141 136 133 129 128 125 121 119 119 116 118 115 111 115
185 185 183 191 197 200 199 205 219 214 217 215 218 217 205 187 189 197 186 179 176 173 171 167 158 156 152 143 140 141 139 133 131 127 122 120 120 121 117 120 117 118 117
181 185 195 206 211 212 209 209 216 224 224 219 219 218 209 189 198 211 197 180 172 169 167 162 158 152 151 147 137 144 140 136 132 129 127 120 120 122 123 119 119 116 118
185 193 208 223 228 221 216 215 220 228 227 227 229 222 219 209 207 226 198 176 167 159 158 150 148 150 146 145 140 151 143 139 136 133 128 124 122 120 121 122 123 119 115
196 207 221 229 227 223 223 222 225 231 232 231 228 222 219 217 217 206 186 188 163 158 153 145 140 140 141 144 144 143 139 139 138 132 129 124 124 123 124 120 119 118 122
204 212 229 230 225 224 225 229 234 235 235 234 233 226 222 216 215 219 212 178 170 166 152 144 133 135 141 149 144 140 138 134 132 130 127 122 114 119 119 118 115 115 116
199 212 217 211 204 209 215 223 226 232 233 235 234 228 224 220 221 202 174 161 161 163 168 171 176 161 159 149 143 141 136 136 133 128 123 120 119 124 125 120 121 124 125
196 209 207 196 196 212 216 223 228 235 239 235 235 234 221 218 204 245 152 148 148 152 152 149 149 156 170 161 153 151 148 147 152 152 155 146 135 131 126 131 132 135 138
196 202 202 205 215 207 206 219 217 216 213 207 225 225 223 203 192 110 150 144 148 152 149 145 159 167 174 158 152 153 157 160 173 178 181 176 147 147 147 152 155 147 142
193 196 195 206 218 213 177 177 195 203 218 222 207 198 201 191 196 38 124 137 145 149 151 151 161 147 147 144 148 149 149 147 150 150 148 145 136 129 159 177 188 192 197
195 193 201 205 214 201 179 183 185 196 220 215 183 171 165 186 190 189 193 158 150 147 151 153 156 165 165 162 155 148 147 146 148 144 135 134 130 129 141 156 179 191 196
198 196 198 204 210 201 185 183 202 197 199 192 182 181 191 211 204 205 215 198 174 155 152 158 161 169 168 166 161 157 154 151 154 145 136 138 138 133 129 134 136 149 183
202 199 195 203 208 204 186 183 196 206 208 210 214 215 212 197 190 191 194 178 171 161 157 176 176 179 175 169 169 171 167 166 162 156 145 142 133 122 121 118 127 118 138
206 203 200 200 204 206 192 188 186 203 203 197 202 199 200 197 196 188 179 174 159 159 173 174 178 176 181 180 175 175 173 173 171 173 156 141 133 128 118 118 110 105 127
212 208 204 202 202 205 198 194 190 196 197 191 170 158 162 167 165 171 162 146 153 173 172 184 181 185 186 184 178 172 174 175 178 184 173 156 148 145 133 121 114 100 92
219 211 207 204 201 204 204 197 194 192 188 183 171 158 156 159 151 143 153 157 165 173 178 182 183 183 181 179 177 170 173 177 183 190 192 177 166 190 199 269 140 107 94
218 211 208 205 201 202 203 200 198 193 187 186 183 176 175 174 174 173 174 174 174 178 178 184 186 178 175 174 175 171 171 173 179 191 205 222 243 257 258 259 259 200 147
223 214 210 205 202 204 201 203 203 199 194 192 194 193 186 182 177 177 176 179 177 177 177 184 184 187 179 177 176 173 173 179 188 204 220 231 240 243 245 248 234 221 217
225 216 212 208 203 205 205 206 201 203 198 197 197 196 194 191 185 184 185 186 184 184 181 183 184 179 180 176 172 170 173 182 196 208 222 234 244 243 240 237 244 249 237
224 215 212 211 204 205 205 204 205 200 202 201 201 200 201 202 198 196 190 188 190 191 192 193 188 187 180 186 187 179 185 197 206 214 223 228 232 242 248 248 251 254 254
221 216 213 209 209 205 209 208 210 205 203 206 206 205 207 207 205 204 202 192 192 193 197 196 193 186 188 186 185 179 176 202 219 225 232 240 243 246 249 248 245 247 248
211 208 215 206 210 206 208 211 213 209 209 207 210 206 207 206 207 206 205 205 201 198 197 192 195 199 197 190 181 175 163 187 203 231 236 241 244 245 244 249 252 255 257
194 199 205 202 207 210 208 212 216 218 212 214 216 215 217 205 206 206 204 204 203 203 204 200 198 201 206 205 196 202 185 198 190 203 230 239 240 242 247 249 254 256 258
193 196 200 204 207 209 210 208 219 223 220 228 220 217 211 217 207 202 202 202 203 206 206 207 209 209 207 210 211 207 206 205 224 224 225 237 243 243 243 246 248 247 251
152 184 188 203 206 212 212 210 210 214 222 229 218 213 222 214 210 206 204 202 202 204 205 206 206 211 212 214 219 222 229 229 229 232 240 245 242 242 241 240 241 244 250